Terug naar catalogus

FENGYUN 1C DEB

LostSSO
NORAD 38794·DEBRIS·🇨🇳 China

Gelanceerd May 10, 1999 vanaf Taiyuan Satellite Launch Center

Loading…

Volgende Passages (komende 24 uur)

TLE

VerouderdSource: Space-Track

Epoch: Jul 25, 2022, 12:25 UTC

1 38794U 99025EUJ 22206.51796745  .00000538  00000-0  51965-3 0  9997
2 38794  99.1144 309.1626 0213382   9.5694 350.9424 13.74525039590651

Volg FENGYUN 1C DEB in realtime met AllMySat

Download on the App Store